Regional Weather Roundup
Issued by NWS Sterling, VA

Home | Current Version | Previous Version | Graphics & Text | Print | Product List | Glossary On
Versions: 1 2 3 4 5 6 7 8 9 10 11 12 13 14 15 16 17 18 19 20 21 22 23 24 25 26 27 28 29 30 31 32 33 34 35 36 37 38 39 40 41 42 43 44 45 46 47 48 49 50
000
ASUS41 KLWX 310910
RWRLWX

REGIONAL WEATHER ROUNDUP
NATIONAL WEATHER SERVICE BALTIMORE MD/WASHINGTON DC
500 AM EDT SUN AUG 31 2014

Note: "FAIR" indicates few or no clouds below 12,000 feet
with no significant weather and/or obstructions to visibility.
 TC=TEMPERATURE CELSIUS

 * =Non NWS site. Station does not report precipitation (e.g. rain,
    snow, etc.), thunder, or fog.

DCZ001-MDZ009-015-VAZ040>042-051-053>054-311000-
WASHINGTON METRO

CITY           SKY/WX    TMP DP  RH WIND       PRES   REMARKS
WASHINGTON NAT MOCLDY    77  72  84 S8        30.11F
DULLES         PTCLDY    73  71  93 S7        30.10F
ANDREWS AFB    PTCLDY    73  72  99 S6        30.11F
QUANTICO       CLEAR     76  72  87 SW6       30.11F
COLLEGE PARK*  PTCLDY    72  72 100 CALM      30.10S
LEESBURG*      CLOUDY    73  73 100 S5        30.10F
MANASSAS*      CLEAR     72  72 100 S5        30.10S
GAITHERSBURG*  PTCLDY    73  72  94 S5        30.14S

$$

MDZ006>007-011-014-311000-
BALTIMORE METRO

CITY           SKY/WX    TMP DP  RH WIND       PRES   REMARKS
BWI AIRPORT    CLOUDY    74  72  93 CALM      30.10F
MD SCIENCE CTR   N/A     76  72  87 MISG      30.10F
MARTIN STATE   PTCLDY    77  73  88 S6        30.11F
ANNAPOLIS      PTCLDY    75  72  90 S6        30.10F
FORT MEADE*    CLOUDY    70  68  94 CALM      30.12F

$$

MDZ012-015-019>023-311000-
MARYLAND EASTERN SHORE

CITY           SKY/WX    TMP DP  RH WIND       PRES   REMARKS
OCEAN CITY     MOCLDY    77  74  90 SW8       30.15S
SALISBURY      PTCLDY    75  72  90 S5        30.14S
BAY BRIDGE AP*   N/A     77  73  88 S8        30.11S
CAMBRIDGE*     PTCLDY    77  73  88 S6        30.12S
EASTON*        MOCLDY    75  75 100 CALM      30.16S

$$

MDZ017>025-311000-
SOUTHERN MARYLAND

CITY           SKY/WX    TMP DP  RH WIND       PRES   REMARKS
PATUXENT RIVER PTCLDY    75  72  90 SW8       30.12S
ST INIGOES     PTCLDY    76  71  85 S7        30.12S
LEONARDTOWN*   PTCLDY    73  70  88 S5        30.14S

$$

MDZ003>005-311000-
NORTH CENTRAL MARYLAND

CITY           SKY/WX    TMP DP  RH WIND       PRES   REMARKS
FREDERICK*     CLOUDY   N/A N/A N/A CALM      30.11F HAZE
HAGERSTOWN APT MOCLDY    74  71  91 S6        30.08F
WESTMINSTER*   CLOUDY    73  72  94 S7        30.10F FOG

$$

MDZ501>502-311000-
WESTERN MARYLAND

CITY           SKY/WX    TMP DP  RH WIND       PRES   REMARKS
OAKLAND*       PTCLDY    68 N/A N/A S10       30.18R
CUMBERLAND*    CLOUDY    72  70  94 CALM      30.12S VSB 1/4

$$

VAZ025>031-311000-
SHENANDOAH VALLEY

CITY           SKY/WX    TMP DP  RH WIND       PRES   REMARKS
WINCHESTER*    MOCLDY    72  68  88 SW3       30.09S
STAUNTON*      CLEAR     67  64  91 CALM      30.16S FOG

$$

WVZ021-048>050-054>055-311000-
EASTERN WEST VIRGINIA PANHANDLE

CITY           SKY/WX    TMP DP  RH WIND       PRES   REMARKS
MARTINSBURG    MOCLDY    69  66  90 W3        30.09S FOG
PETERSBURG*    NOT AVBL

$$

VAZ036>039-050-311000-
CENTRAL FOOTHILLS

CITY           SKY/WX    TMP DP  RH WIND       PRES   REMARKS
CHARLOTTESVILL CLEAR     72  71  97 CALM      30.11F FOG
ORANGE*          N/A     70  68  94 CALM      30.13S FOG

$$

VAZ055>057-311000-
NORTH AND CENTRAL PIEDMONT

CITY           SKY/WX    TMP DP  RH WIND       PRES   REMARKS
FREDERICKSBRG* CLEAR     73  73 100 S5        30.10S
STAFFORD*      CLEAR     72  72 100 CALM      30.15S FOG

$$

NCZ024-NYZ072-PAZ021-071-VAZ022-071-311000-
OTHER REGIONAL OBSERVATIONS

CITY           SKY/WX    TMP DP  RH WIND       PRES   REMARKS
NEW YORK CITY  CLOUDY    74  64  71 VRB3      30.14F
PHILADELPHIA   CLOUDY    73  67  81 S3        30.12F
PITTSBURGH     RAIN      70  69  97 SW7       30.07R FOG
ROANOKE        MOCLDY    69  67  93 NW3       30.17S
RICHMOND       PTCLDY    74  71  91 S6        30.13F
RALEIGH        CLOUDY    75  71  87 S3        30.17R

$$

ANZ530>537-311000-
MARINE OBSERVATIONS

STATION/POSITION TIME  TEMP    WIND        PRES
                       AIR SEA DIR/SP/G
                 (UTC) (F)     (DEG/KT/KT) (MB)
THOMAS PT LIGHT  0900   76 77  190/ 13/ 14 1020.3F
BALT KEY BRIDGE  0900          190/  6/  8 1019.1F
COVE POINT       0900   76     200/  9/ 10 1019.8S
LEWISETTA        0900   76 79  210/  9/ 10 1019.7S
SOLOMONS ISLAND  0900      79                N/A
PINEY POINT      0900          220/  9/ 11   N/A

$$



USA.gov is the U.S. government's official web portal to all federal, state and local government web resources and services.